| time (UTC) | temp C | wind direction | speed KPH | gust KPH | rain 1hr cm | rain 24hr cm | rain mn cm | humidity % | barometer mb |
| 20260906020123 | 22 | 5 | 16.1 | 25.7 | 0.00 | 0.00 | 0.00 | 86 | 1016.1 |
| 20260906013122 | 22 | 17 | 12.9 | 32.2 | 0.00 | 0.00 | 0.00 | 84 | 1015.9 |
| 20260906010123 | 22 | 340 | 6.4 | 33.8 | 0.00 | 0.00 | 0.00 | 83 | 1015.6 |
| 20260906000123 | 24 | 360 | 22.5 | 29.0 | 0.00 | 0.00 | 0.00 | 81 | 1015.1 |
| 20260905223123 | 26 | 11 | 20.9 | 27.4 | 0.00 | 0.00 | 0.00 | 78 | 1014.4 |
| 20260905220122 | 27 | 27 | 16.1 | 33.8 | 0.00 | 0.00 | 0.00 | 75 | 1014.4 |
| 20260905210122 | 28 | 344 | 11.3 | 33.8 | 0.00 | 0.00 | 0.00 | 74 | 1014.1 |
| 20260905203122 | 28 | 44 | 32.2 | 35.4 | 0.00 | 0.00 | 0.00 | 70 | 1014.3 |
| 20260905200122 | 28 | 49 | 11.3 | 32.2 | 0.00 | 0.00 | 0.00 | 71 | 1014.1 |
| 20260905193122 | 29 | 34 | 12.9 | 37.0 | 0.00 | 0.00 | 0.00 | 70 | 1014.4 |
| 20260905190125 | 29 | 344 | 11.3 | 27.4 | 0.00 | 0.00 | 0.00 | 71 | 1014.4 |
| 20260905180122 | 29 | 51 | 17.7 | 22.5 | 0.00 | 0.00 | 0.00 | 74 | 1014.5 |
| 20260905173122 | 29 | 34 | 12.9 | 27.4 | 0.00 | 0.00 | 0.00 | 72 | 1014.5 |
| 20260905170122 | 29 | 350 | 8.0 | 27.4 | 0.00 | 0.00 | 0.00 | 76 | 1014.7 |
| 20260905163122 | 28 | 346 | 3.2 | 20.9 | 0.00 | 0.00 | 0.00 | 77 | 1014.8 |
| 20260905160122 | 28 | 22 | 6.4 | 22.5 | 0.00 | 0.00 | 0.00 | 79 | 1014.7 |
| 20260905153122 | 28 | 21 | 8.0 | 25.7 | 0.00 | 0.00 | 0.00 | 81 | 1014.4 |
| 20260905150121 | 28 | 332 | 3.2 | 20.9 | 0.00 | 0.00 | 0.00 | 81 | 1014.2 |
| 20260905143122 | 27 | 36 | 8.0 | 16.1 | 0.00 | 0.00 | 0.00 | 85 | 1014.0 |
| 20260905140122 | 26 | 360 | 6.4 | 14.5 | 0.00 | 0.00 | 0.00 | 92 | 1013.9 |
| 20260905130122 | 25 | 325 | 3.2 | 8.0 | 0.00 | 0.00 | 0.00 | 93 | 1013.7 |
| 20260905123121 | 24 | 306 | 0.0 | 20.9 | 0.00 | 0.00 | 0.00 | 93 | 1013.5 |
| 20260905120122 | 24 | 232 | 3.2 | 11.3 | 0.00 | 0.00 | 0.00 | 93 | 1013.2 |
| 20260905113122 | 24 | 222 | 1.6 | 6.4 | 0.00 | 0.00 | 0.00 | 93 | 1013.1 |
| 20260905103121 | 24 | 302 | 1.6 | 4.8 | 0.00 | 0.00 | 0.00 | 92 | 1013.0 |
| 20260905100121 | 24 | 288 | 0.0 | 0.0 | 0.00 | 0.00 | 0.00 | 91 | 1013.0 |
| 20260905093121 | 25 | 288 | 1.6 | 4.8 | 0.00 | 0.00 | 0.00 | 91 | 1013.1 |
| 20260905083121 | 25 | 301 | 1.6 | 8.0 | 0.00 | 0.00 | 0.00 | 89 | 1013.3 |
| 20260905080121 | 25 | 246 | 8.0 | 11.3 | 0.00 | 0.00 | 0.00 | 89 | 1013.0 |
| 20260905073121 | 26 | 260 | 1.6 | 8.0 | 0.00 | 0.00 | 0.00 | 87 | 1012.9 |
| 20260905070121 | 26 | 265 | 3.2 | 12.9 | 0.00 | 0.00 | 0.00 | 87 | 1012.9 |
| 20260905063121 | 26 | 252 | 0.0 | 8.0 | 0.00 | 0.00 | 0.00 | 87 | 1013.2 |
| 20260905060121 | 26 | 243 | 1.6 | 12.9 | 0.00 | 0.00 | 0.00 | 86 | 1013.2 |
| 20260905053121 | 26 | 214 | 6.4 | 12.9 | 0.00 | 0.00 | 0.00 | 86 | 1013.5 |
| 20260905050121 | 26 | 227 | 11.3 | 12.9 | 0.00 | 0.00 | 0.00 | 86 | 1013.5 |
| 20260905043121 | 26 | 212 | 8.0 | 8.0 | 0.00 | 0.00 | 0.00 | 88 | 1013.6 |
| 20260905040121 | 26 | 227 | 3.2 | 6.4 | 0.00 | 0.00 | 0.00 | 88 | 1013.6 |
| 20260905023121 | 28 | 316 | 0.0 | 0.0 | 0.00 | 0.00 | 0.00 | 82 | 1013.7 |